Probability
1 1 0 0 0 0 0 0 0 0 0 0 0 0 0 0 0 0 0 0 0 1 0 0 0 0 0 0 0 0 0 0 0 0 0 0 0 0 0 0 0 0 0 0 0 0 0 0 0
1 0 0 0 0 0 0 0 0 0 0 0 0 0 0 0 0 0 0 0 1 1 1 1 0 0 0 0 0 0 0 0 0 0 0 0 0 0 0 0 0 0 0 0 0 0 0 0 0
0 0 0 0 0 0 0 0 0 0 0 0 0 0 0 0 0 0 0 0 1 2 3 2 1 0 0 0 0 0 0 0 0 0 0 0 0 0 0 0 0 0 0 0 0 0 0 0 0
0 0 0 0 0 0 0 0 0 0 0 0 0 0 0 0 0 0 0 0 1 2 3 3 1 1 0 0 0 0 0 0 0 0 0 0 0 0 0 0 0 0 0 0 0 0 0 0 0
0 0 0 0 0 0 0 0 0 0 0 0 0 0 0 0 0 0 0 0 1 2 3 2 2 2 1 0 0 0 0 0 0 0 0 0 0 0 0 0 0 0 0 0 0 0 0 0 0
0 0 0 0 0 0 0 0 0 0 0 0 0 0 0 0 0 0 0 0 1 2 2 1 2 2 1 0 0 0 0 0 0 0 0 0 0 0 0 0 0 0 0 0 0 0 0 0 0
0 0 0 0 0 0 0 0 0 0 0 0 0 0 0 0 0 0 0 0 1 2 2 1 1 1 0 0 0 0 0 0 0 0 0 0 0 0 0 0 0 0 0 0 0 0 0 0 0
0 0 0 0 0 0 0 0 0 0 0 0 0 0 0 0 0 0 0 0 1 2 2 1 0 0 0 0 0 0 0 0 0 0 0 0 0 0 0 0 0 0 0 0 0 0 0 0 0
0 0 0 0 0 0 0 0 0 0 0 0 0 0 0 0 0 0 0 0 0 1 1 0 0 0 0 0 0 0 0 0 0 0 0 0 0 0 0 0 0 0 0 0 0 0 0 0 0
0 0 0 0 0 0 0 0 0 0 0 0 0 0 0 0 0 0 0 0 0 0 0 0 0 0 0 0 0 0 0 0 0 0 0 0 0 0 0 0 0 0 0 0 0 0 0 0 0
0 0 0 0 0 0 0 0 0 0 0 0 0 0 0 0 0 0 0 0 0 0 0 0 0 0 0 0 0 0 0 0 0 0 0 0 0 0 0 0 0 0 0 0 0 0 0 0 0
0 0 0 0 0 0 0 0 0 0 0 0 0 0 0 0 0 0 0 0 0 0 0 0 0 0 0 0 0 0 0 0 0 0 0 0 0 0 0 0 0 0 0 0 0 0 0 0 0
0 0 0 0 0 0 0 0 0 0 0 0 0 0 0 0 0 0 0 0 0 0 0 0 0 0 0 0 0 0 0 0 0 0 0 0 0 0 0 0 0 0 0 0 0 0 0 0 0
0 0 0 0 0 0 0 0 0 0 0 0 0 0 0 0 0 0 0 0 0 0 0 0 0 0 0 0 0 0 0 0 0 0 0 0 0 0 0 0 0 0 0 0 0 0 0 0 0
0 0 0 0 0 0 0 0 0 0 0 0 0 0 0 0 0 0 0 0 0 0 0 0 0 0 0 0 0 0 0 0 0 0 0 0 0 0 0 0 0 0 0 0 0 0 0 0 0
0 0 0 0 0 0 0 0 0 0 0 0 0 0 0 0 0 0 0 0 0 0 0 0 0 0 0 0 0 0 0 0 0 0 0 0 0 0 0 0 0 0 0 0 0 0 0 0 0
0 0 0 0 0 0 0 0 0 0 0 0 0 0 0 0 0 0 0 0 0 0 0 0 0 0 0 0 0 0 0 0 0 0 0 0 0 0 0 0 0 0 0 0 0 0 0 0 0
0 0 0 0 0 0 0 0 0 0 0 0 0 0 0 0 0 0 0 0 0 0 0 0 0 0 0 0 0 0 0 0 0 0 0 0 0 0 0 0 0 0 0 0 0 0 0 0 0
0 0 0 0 0 0 0 0 0 0 0 0 0 0 0 0 0 0 0 0 0 0 0 0 0 0 0 0 0 0 0 0 0 0 0 0 0 0 0 0 0 0 0 0 0 0 0 0 0
0 0 0 0 0 0 0 0 0 0 0 0 0 0 0 0 0 0 0 0 0 0 0 0 0 0 0 0 0 0 0 0 0 0 0 0 0 0 0 0 0 0 0 0 0 0 0 0 0
0 0 0 0 0 0 0 0 0 0 0 0 0 0 0 0 0 0 0 0 0 0 0 0 0 0 0 0 0 0 0 0 0 0 0 0 0 0 0 0 0 0 0 0 0 0 0 0 0
0 0 0 0 0 0 0 0 0 0 0 0 0 0 0 0 0 0 1 0 0 0 0 0 0 0 0 0 0 0 0 0 0 0 0 0 0 0 0 0 0 0 0 0 0 0 0 0 0
0 0 0 0 0 0 0 0 0 0 0 0 0 0 0 0 0 0 0 0 0 0 0 0 0 0 0 0 0 0 0 0 0 0 0 0 0 0 0 0 0 0 0 0 0 0 0 0 0
0 0 0 0 0 0 0 0 0 0 0 0 0 0 0 0 0 0 0 0 0 0 0 0 0 0 0 0 0 0 0 0 0 0 0 0 0 0 0 0 0 0 0 0 0 0 0 0 0
0 0 0 0 0 0 0 0 0 0 0 0 0 0 0 0 0 0 0 0 0 0 0 0 0 0 0 0 0 0 0 0 0 0 0 0 0 0 0 0 0 0 0 0 0 0 0 0 0
0 0 0 0 0 0 0 0 0 0 0 0 0 0 0 0 0 0 0 0 0 0 0 0 0 0 0 0 0 0 0 0 0 0 0 0 0 0 0 0 0 0 0 0 0 0 0 0 0
0 0 0 0 0 0 0 0 0 0 0 0 0 0 0 0 0 0 0 0 0 0 0 0 0 0 0 0 0 0 0 0 0 0 0 0 0 0 0 0 0 0 0 0 0 0 0 0 0
0 0 0 0 0 0 0 0 0 0 0 0 0 0 0 0 0 0 0 0 0 0 0 0 0 0 0 0 0 0 0 0 0 0 0 0 0 0 0 0 0 0 0 0 0 0 0 0 0
0 0 0 0 0 0 0 0 0 0 0 0 0 0 0 0 0 0 0 0 0 0 0 0 0 0 0 0 0 0 0 0 0 0 0 0 0 0 0 0 0 0 0 0 0 0 0 0 0
0 0 0 0 0 0 0 0 0 0 0 0 0 0 0 0 0 0 0 0 0 0 0 0 0 0 0 0 0 0 0 0 0 0 0 0 0 0 0 0 0 0 0 0 0 0 0 0 0
Wind_Speed
2 4 3 3 4 4 0 1 0 1 2 2 3 5 6 4 2 3 1 5 6 5 4 6 10 11 11 11 11 11 11 11 11 10 10 8 8 8 7 6 6 5 5 5 5 4 4 4 4
2 2 3 4 4 2 1 1 0 1 2 2 4 4 5 4 4 5 3 5 7 6 5 6 10 11 11 10 11 11 11 10 10 9 8 8 7 7 6 6 5 5 5 5 4 4 4 4 4
2 2 3 3 2 2 1 0 0 1 2 2 4 4 4 3 4 3 4 7 7 6 5 6 10 11 11 11 11 10 10 10 9 8 8 7 7 7 6 6 5 5 4 4 4 4 3 4 4
3 4 3 3 0 1 1 0 0 2 2 4 4 4 3 2 4 5 7 8 7 5 5 6 11 11 11 10 10 10 9 9 9 8 8 7 7 7 6 5 5 4 4 4 4 3 3 4 4
4 3 3 1 1 1 1 1 0 2 2 3 4 4 3 3 7 10 8 8 7 5 4 5 10 11 10 10 9 9 9 8 8 7 6 6 6 6 5 5 5 4 4 4 4 4 4 4 4
4 3 3 0 1 1 1 2 1 3 3 3 4 4 2 2 7 8 7 6 6 6 4 4 9 10 9 9 8 7 7 7 6 5 5 5 5 5 5 4 4 4 4 4 4 4 4 5 5
3 3 1 1 1 1 1 1 2 2 3 2 3 4 2 2 5 7 6 6 5 5 4 3 3 5 7 7 7 6 6 5 5 4 4 4 4 4 4 4 4 4 4 4 4 4 5 5 5
3 4 1 1 1 1 1 2 2 3 2 2 3 6 5 5 6 7 6 5 4 4 3 3 3 3 3 3 4 5 5 5 4 4 5 5 6 6 6 6 5 5 5 5 5 5 5 5 5
3 4 1 3 3 1 0 2 2 2 2 1 2 3 5 10 9 8 5 4 3 3 2 2 3 2 2 2 3 4 4 5 5 4 5 5 4 4 4 6 6 5 6 6 6 6 5 5 5
3 2 3 2 2 2 2 2 2 3 2 2 4 5 8 10 10 9 7 5 4 3 2 2 2 2 2 2 3 2 3 3 3 3 3 3 2 3 4 7 8 8 7 8 8 7 6 5 3
3 4 2 1 2 2 2 2 2 4 2 4 8 9 10 9 9 9 7 6 5 4 3 2 2 2 2 1 2 2 2 2 2 3 3 2 2 3 3 3 4 5 6 4 5 5 3 3 2
2 1 1 1 1 2 2 2 2 2 4 4 8 12 10 10 9 9 8 6 4 4 3 3 3 2 2 2 2 1 1 1 2 2 2 2 2 2 3 2 3 3 2 3 3 2 3 3 3
1 1 0 1 2 2 2 1 1 1 2 6 8 10 10 10 7 6 6 5 4 4 3 3 3 3 2 2 1 1 1 1 1 2 2 2 2 2 2 2 2 2 2 2 3 3 3 3 3
2 1 2 2 1 1 3 1 2 1 5 8 9 8 8 8 7 5 5 5 5 4 4 3 3 3 3 2 2 1 1 1 1 1 2 2 2 1 2 2 2 2 2 2 2 2 2 2 2
1 3 3 2 1 0 2 2 0 1 6 7 7 6 6 6 6 7 7 6 6 5 4 4 4 3 3 3 2 1 1 1 1 1 2 2 2 2 1 2 2 2 2 2 2 3 2 3 3
2 3 1 2 0 1 3 1 2 1 6 7 6 5 5 5 5 5 5 5 5 5 4 4 4 4 3 3 2 1 2 2 1 1 2 2 2 2 2 2 2 2 2 2 2 2 2 3 3
3 2 1 1 1 2 3 2 2 1 5 6 5 5 4 4 3 4 6 6 6 6 5 4 4 4 4 3 3 2 2 2 1 2 2 2 2 2 2 2 2 2 2 3 2 2 2 2 2
2 2 1 1 1 3 3 1 1 1 3 5 5 4 4 4 5 5 5 5 5 5 5 5 4 4 4 3 3 2 3 2 2 2 1 2 2 2 2 2 3 3 3 3 3 2 2 1 2
3 3 2 0 0 2 3 2 2 1 2 3 4 4 4 4 3 3 5 5 6 5 4 4 5 3 3 2 2 2 1 1 1 1 2 2 2 2 2 2 3 3 2 2 2 2 3 3 2
3 3 2 1 1 2 1 1 2 2 4 5 5 5 5 4 3 3 4 5 6 5 4 4 5 4 3 2 2 2 1 1 0 1 2 3 2 2 2 2 2 2 2 3 3 2 2 2 3
2 4 4 3 1 3 2 2 2 1 1 2 3 4 4 7 7 5 5 5 5 5 5 5 5 4 3 3 3 3 3 2 2 2 2 2 2 2 2 2 2 2 2 2 2 2 2 1 2
2 3 5 4 3 1 1 1 4 2 1 2 3 4 5 5 5 6 6 5 5 5 4 4 4 4 3 4 3 3 2 1 1 1 1 2 2 2 2 2 2 2 2 2 2 2 1 1 1
3 2 3 3 3 1 1 1 5 1 3 5 5 4 5 5 6 7 7 6 5 5 4 4 4 3 3 3 4 3 2 1 0 0 1 2 2 2 2 2 2 2 1 2 2 2 2 1 1
5 5 5 4 3 0 2 2 5 5 7 6 5 5 5 5 6 6 5 5 4 4 4 4 4 3 3 3 3 3 3 2 2 1 1 1 1 2 2 1 1 1 1 1 1 1 2 1 1
4 5 2 2 1 3 2 2 7 6 6 7 8 7 6 6 6 6 6 5 5 5 4 4 4 3 3 3 3 2 3 3 3 2 1 0 1 1 2 1 1 1 1 1 1 1 2 1 1
5 6 6 5 4 2 1 5 7 4 3 4 5 6 5 6 6 7 7 6 6 5 5 4 4 3 3 3 2 2 2 2 1 1 1 1 1 2 2 1 1 1 1 1 1 1 1 1 1
6 4 4 5 2 1 3 5 5 0 2 4 6 7 7 7 6 6 6 6 6 5 5 5 5 3 3 2 2 2 2 2 1 1 1 0 1 1 1 0 1 1 1 1 1 1 2 2 2
4 7 5 4 4 2 3 3 5 4 5 5 6 8 7 6 6 6 5 6 5 5 4 4 4 4 3 2 2 2 1 1 1 1 1 1 1 1 1 1 1 1 2 1 1 1 1 2 2
4 4 4 4 4 4 2 6 5 7 7 8 8 8 9 8 7 6 5 5 5 4 4 4 4 4 3 2 2 2 2 1 2 1 1 1 1 1 1 1 1 2 2 2 1 1 2 2 2
5 7 7 5 3 3 3 7 4 5 6 7 7 6 6 7 7 6 6 6 5 5 4 4 4 4 3 3 3 3 2 2 2 2 1 1 2 1 1 2 2 2 2 2 2 2 2 2 2
Wind_Direction
54 77 76 57 54 52 11 289 224 24 42 40 74 86 95 85 100 127 105 122 126 127 129 132 126 121 117 114 110 108 106 104 101 100 99 99 96 94 91 91 91 90 87 85 80 74 70 65 54
89 84 57 59 79 63 291 273 167 210 147 138 76 77 73 72 76 101 116 133 127 125 120 127 125 119 115 112 109 106 102 102 101 100 98 96 92 89 86 86 84 81 80 78 74 65 54 48 40
88 58 77 70 98 172 226 300 224 28 113 78 71 58 72 93 114 127 147 136 122 117 116 126 123 119 115 111 107 105 104 103 100 98 94 91 87 84 80 78 73 67 64 64 62 53 40 30 26
78 47 58 71 167 237 244 321 146 113 75 56 89 70 58 64 139 137 133 128 120 116 117 125 124 119 115 111 108 106 104 101 98 95 91 86 81 77 72 67 61 56 49 45 43 35 23 14 10
62 73 63 44 288 304 331 338 163 103 78 66 91 86 47 20 110 124 128 129 126 121 117 125 126 121 118 115 111 107 102 98 94 92 87 80 72 66 61 54 47 43 35 29 26 18 9 5 1
59 65 83 163 299 318 349 350 70 85 87 85 90 94 69 106 121 132 129 129 128 125 115 117 128 125 124 120 115 109 103 99 92 86 79 69 57 49 41 33 28 23 19 14 11 4 359 355 353
101 96 130 202 291 330 49 25 80 104 106 114 110 98 98 140 138 129 122 118 113 113 109 97 101 116 121 119 116 109 102 94 85 73 63 54 40 28 19 10 3 1 3 359 355 351 351 352 351
118 103 97 227 197 265 350 50 72 92 96 102 109 134 161 176 135 115 105 100 104 102 104 103 93 85 81 84 105 102 94 84 68 54 43 33 25 16 8 360 352 353 360 356 352 351 353 358 356
93 81 183 214 196 209 86 73 53 70 106 88 86 139 155 138 125 115 105 96 110 121 104 110 105 90 79 74 79 72 63 54 45 34 30 30 20 8 1 359 5 5 2 1 2 3 3 8 2
99 142 222 218 181 158 143 123 130 93 94 84 80 87 122 132 137 139 145 152 157 162 157 132 123 105 86 70 62 45 47 39 34 32 29 26 21 10 17 13 18 18 17 13 15 18 20 23 7
146 186 228 256 162 146 138 136 119 128 165 184 154 145 142 142 148 156 166 169 176 172 171 163 149 131 113 81 72 50 40 31 23 31 34 31 28 20 21 18 12 11 16 13 10 21 20 18 11
155 227 192 192 155 143 146 127 117 168 209 176 152 149 150 155 166 172 174 175 167 164 182 171 154 142 129 104 82 70 49 33 29 28 35 47 42 32 24 23 7 8 2 4 9 14 12 14 15
174 242 114 123 106 132 112 108 122 214 148 129 133 145 156 165 171 175 173 170 163 170 179 171 160 154 141 117 97 82 55 46 44 38 33 55 68 48 31 17 12 8 7 13 10 14 17 15 12
191 128 70 59 92 83 106 64 76 157 128 132 141 158 169 172 172 168 168 169 171 177 176 158 155 152 137 128 116 98 74 59 56 46 43 60 74 71 47 23 12 7 1 4 17 20 20 13 15
111 90 51 23 64 88 103 41 294 187 135 142 157 171 175 179 177 182 182 175 174 173 162 158 157 140 136 130 125 109 84 76 65 46 43 60 70 71 64 39 18 359 353 7 22 23 23 23 22
78 82 65 330 21 65 100 230 277 174 150 158 169 176 180 193 194 189 174 169 167 159 156 163 152 134 132 126 116 96 75 71 57 45 42 49 58 68 63 47 14 355 6 18 27 25 26 21 17
48 102 139 334 7 116 116 219 296 141 160 169 180 184 188 201 203 187 171 168 167 161 154 148 135 131 128 116 98 86 73 62 50 46 39 36 45 53 63 48 13 11 26 23 21 35 33 22 10
158 142 126 135 11 111 126 241 289 151 171 184 188 192 192 202 211 185 168 162 151 146 142 137 129 124 117 102 86 68 56 40 38 35 28 36 37 46 57 48 27 28 37 25 25 35 30 22 359
143 132 122 168 244 103 145 200 264 204 165 189 190 195 202 212 209 157 153 145 134 135 140 142 138 139 129 111 105 97 71 21 18 11 22 32 35 41 53 46 32 31 39 27 23 35 32 15 1
136 124 117 60 46 120 135 263 260 202 189 201 197 196 198 184 162 154 148 147 148 151 152 151 154 153 150 136 126 127 125 95 36 357 18 27 27 25 48 53 36 27 33 28 26 36 36 14 21
180 175 176 165 74 49 73 341 300 282 203 182 192 190 189 182 176 170 165 162 154 161 170 168 164 158 149 131 104 84 62 40 26 12 6 3 18 28 43 50 46 34 42 27 18 34 63 33 11
208 198 164 152 117 5 94 245 285 259 265 220 211 189 189 185 173 170 169 169 170 176 168 158 155 154 147 137 136 136 133 149 231 273 326 355 18 22 29 43 47 46 42 28 5 41 55 76 22
177 133 131 127 126 80 28 158 277 250 224 228 217 199 190 184 173 171 173 173 171 161 157 157 150 147 141 139 145 137 135 154 142 43 26 10 1 7 22 35 40 39 31 26 25 29 39 65 83
125 83 72 61 77 123 224 181 263 223 211 206 200 195 186 176 165 160 154 146 147 144 144 146 144 143 136 137 140 146 151 148 129 94 30 355 339 342 359 20 28 22 15 13 18 29 37 37 55
114 101 79 31 17 253 222 200 249 236 209 194 188 190 182 168 157 153 153 153 154 155 154 151 149 149 145 141 142 153 162 162 169 176 192 272 327 322 320 348 356 354 346 360 24 36 25 21 33
171 147 159 176 198 257 226 233 254 253 210 181 173 166 160 158 159 162 167 162 161 162 156 153 156 155 151 147 150 148 158 157 172 180 184 207 238 261 281 303 323 342 355 15 35 37 13 20 15
142 169 163 128 132 162 254 272 297 50 149 157 154 152 164 168 167 166 161 158 160 161 162 162 157 147 148 145 140 139 144 139 138 134 126 188 266 272 310 344 1 359 13 22 41 36 10 17 14
141 142 113 125 152 220 274 261 242 222 197 176 168 171 173 166 164 161 158 158 159 159 150 143 148 153 149 140 142 130 130 130 131 113 85 39 347 8 36 33 28 17 20 26 44 13 3 24 360
131 127 126 125 151 158 228 266 233 209 194 181 183 178 171 167 165 162 157 149 140 131 129 131 132 125 119 123 115 103 89 85 93 89 70 59 38 46 58 53 52 38 25 24 41 15 15 23 2
161 167 154 154 191 173 174 266 286 212 186 173 171 167 161 160 155 150 144 135 132 132 131 132 130 125 126 120 108 101 91 82 74 61 45 57 57 46 51 59 59 44 36 29 33 16 20 30 6